| time (UTC) | temp F | wind direction | speed MPH | gust MPH | rain 1hr in | rain 24hr in | rain mn in | humidity % | barometer mb |
| 20260901181910 | 71 | 143 | 1.0 | 3.0 | 0.00 | 0.01 | 0.01 | 60 | 1020.3 |
| 20260901180410 | 73 | 157 | 2.0 | 5.0 | 0.00 | 0.01 | 0.01 | 57 | 1020.2 |
| 20260901174911 | 73 | 159 | 3.0 | 4.0 | 0.00 | 0.01 | 0.01 | 56 | 1020.0 |
| 20260901173411 | 74 | 163 | 2.0 | 4.0 | 0.00 | 0.01 | 0.01 | 56 | 1019.9 |
| 20260901171911 | 75 | 181 | 1.0 | 5.0 | 0.00 | 0.01 | 0.01 | 54 | 1019.9 |
| 20260901170411 | 78 | 192 | 0.0 | 4.0 | 0.00 | 0.01 | 0.01 | 50 | 1019.9 |
| 20260901164910 | 80 | 144 | 2.0 | 3.0 | 0.00 | 0.01 | 0.01 | 47 | 1019.9 |
| 20260901163410 | 82 | 128 | 1.0 | 2.0 | 0.00 | 0.01 | 0.01 | 43 | 1019.9 |
| 20260901161910 | 81 | 175 | 0.0 | 3.0 | 0.00 | 0.01 | 0.01 | 45 | 1020.1 |
| 20260901160410 | 81 | 153 | 2.0 | 4.0 | 0.00 | 0.01 | 0.01 | 43 | 1020.1 |
| 20260901154912 | 82 | 152 | 2.0 | 5.0 | 0.00 | 0.01 | 0.01 | 42 | 1020.2 |
| 20260901153411 | 81 | 143 | 1.0 | 5.0 | 0.00 | 0.01 | 0.01 | 44 | 1020.3 |
| 20260901151911 | 82 | 155 | 2.0 | 6.0 | 0.00 | 0.01 | 0.01 | 43 | 1020.4 |
| 20260901150411 | 83 | 150 | 0.0 | 4.0 | 0.00 | 0.01 | 0.01 | 46 | 1020.4 |
| 20260901144911 | 83 | 153 | 0.0 | 3.0 | 0.00 | 0.01 | 0.01 | 44 | 1020.5 |
| 20260901143411 | 83 | 158 | 1.0 | 4.0 | 0.00 | 0.01 | 0.01 | 45 | 1020.6 |
| 20260901141911 | 84 | 184 | 3.0 | 5.0 | 0.00 | 0.01 | 0.01 | 40 | 1020.6 |
| 20260901140411 | 83 | 264 | 2.0 | 5.0 | 0.00 | 0.01 | 0.01 | 45 | 1020.6 |
| 20260901133411 | 82 | 44 | 4.0 | 8.0 | 0.00 | 0.01 | 0.01 | 48 | 1020.8 |
| 20260901131910 | 82 | 351 | 5.0 | 13.0 | 0.00 | 0.01 | 0.01 | 49 | 1021.0 |
| 20260901130410 | 81 | 73 | 0.0 | 4.0 | 0.00 | 0.01 | 0.01 | 50 | 1021.1 |
| 20260901124910 | 81 | 76 | 0.0 | 4.0 | 0.00 | 0.01 | 0.01 | 51 | 1021.3 |
| 20260901123410 | 80 | 39 | 3.0 | 5.0 | 0.00 | 0.01 | 0.01 | 53 | 1021.5 |
| 20260901121910 | 79 | 5 | 2.0 | 4.0 | 0.00 | 0.01 | 0.01 | 56 | 1021.6 |
| 20260901120410 | 78 | 43 | 5.0 | 6.0 | 0.00 | 0.01 | 0.01 | 59 | 1021.8 |
| 20260901114911 | 78 | 66 | 3.0 | 7.0 | 0.00 | 0.01 | 0.01 | 57 | 1021.9 |
| 20260901113411 | 77 | 67 | 3.0 | 6.0 | 0.00 | 0.01 | 0.01 | 58 | 1022.0 |
| 20260901111911 | 77 | 95 | 2.0 | 9.0 | 0.00 | 0.01 | 0.01 | 58 | 1022.1 |
| 20260901110411 | 78 | 52 | 3.0 | 5.0 | 0.00 | 0.01 | 0.01 | 57 | 1022.3 |
| 20260901104910 | 76 | 51 | 5.0 | 7.0 | 0.00 | 0.01 | 0.01 | 58 | 1022.3 |
| 20260901103410 | 76 | 74 | 3.0 | 4.0 | 0.00 | 0.01 | 0.01 | 59 | 1022.5 |
| 20260901101911 | 75 | 13 | 1.0 | 4.0 | 0.00 | 0.01 | 0.01 | 58 | 1022.5 |
| 20260901100410 | 74 | 355 | 1.0 | 4.0 | 0.00 | 0.01 | 0.01 | 63 | 1022.8 |
| 20260901094910 | 73 | 40 | 3.0 | 4.0 | 0.00 | 0.01 | 0.01 | 66 | 1022.8 |
| 20260901093410 | 71 | 319 | 2.0 | 4.0 | 0.00 | 0.01 | 0.01 | 67 | 1022.8 |
| 20260901091910 | 71 | 5 | 1.0 | 4.0 | 0.00 | 0.01 | 0.01 | 71 | 1023.0 |
| 20260901090410 | 70 | 275 | 3.0 | 6.0 | 0.00 | 0.01 | 0.01 | 73 | 1022.9 |
| 20260901084910 | 70 | 294 | 1.0 | 4.0 | 0.00 | 0.01 | 0.01 | 76 | 1022.9 |
| 20260901083410 | 69 | 283 | 3.0 | 9.0 | 0.00 | 0.01 | 0.01 | 74 | 1022.9 |
| 20260901081910 | 68 | 305 | 3.0 | 8.0 | 0.00 | 0.01 | 0.01 | 77 | 1022.7 |
| 20260901080410 | 68 | 301 | 3.0 | 8.0 | 0.00 | 0.01 | 0.01 | 78 | 1022.5 |
| 20260901074910 | 66 | 286 | 5.0 | 7.0 | 0.00 | 0.01 | 0.01 | 82 | 1022.6 |
| 20260901073410 | 65 | 272 | 3.0 | 6.0 | 0.00 | 0.01 | 0.01 | 84 | 1022.6 |
| 20260901071910 | 65 | 281 | 4.0 | 9.0 | 0.00 | 0.01 | 0.01 | 84 | 1022.8 |
| 20260901070410 | 64 | 259 | 6.0 | 8.0 | 0.00 | 0.01 | 0.01 | 85 | 1022.5 |
| 20260901064910 | 63 | 269 | 3.0 | 8.0 | 0.00 | 0.01 | 0.01 | 88 | 1022.4 |
| 20260901063410 | 63 | 294 | 2.0 | 4.0 | 0.00 | 0.01 | 0.01 | 89 | 1022.4 |
| 20260901061910 | 63 | 294 | 2.0 | 2.0 | 0.00 | 0.01 | 0.01 | 89 | 1022.2 |
| 20260901060410 | 63 | 295 | 3.0 | 6.0 | 0.00 | 0.01 | 0.01 | 88 | 1022.3 |
| 20260901054911 | 63 | 277 | 2.0 | 4.0 | 0.00 | 0.01 | 0.01 | 86 | 1022.3 |
| 20260901053411 | 63 | 254 | 3.0 | 4.0 | 0.00 | 0.01 | 0.01 | 88 | 1022.2 |
| 20260901051911 | 62 | 251 | 1.0 | 2.0 | 0.00 | 0.01 | 0.01 | 90 | 1021.8 |
| 20260901044912 | 62 | 252 | 1.0 | 2.0 | 0.00 | 0.01 | 0.01 | 90 | 1021.5 |
| 20260901043412 | 62 | 221 | 3.0 | 4.0 | 0.00 | 0.01 | 0.01 | 89 | 1021.3 |
| 20260901040412 | 62 | 221 | 2.0 | 4.0 | 0.01 | 0.01 | 0.01 | 87 | 1021.1 |
| 20260901034912 | 62 | 277 | 2.0 | 3.0 | 0.01 | 0.01 | 0.01 | 88 | 1021.0 |
| 20260901033411 | 63 | 279 | 0.0 | 6.0 | 0.01 | 0.01 | 0.01 | 88 | 1020.7 |
| 20260901031911 | 63 | 31 | 0.0 | 2.0 | 0.00 | 0.00 | 0.00 | 86 | 1020.5 |
| 20260901030411 | 64 | 31 | 2.0 | 3.0 | 0.00 | 0.00 | 0.00 | 85 | 1020.6 |
| 20260901024911 | 64 | 34 | 0.0 | 1.0 | 0.00 | 0.00 | 0.00 | 84 | 1020.7 |
| 20260901023411 | 64 | 34 | 1.0 | 2.0 | 0.00 | 0.00 | 0.00 | 84 | 1020.6 |
| 20260901021911 | 64 | 34 | 0.0 | 2.0 | 0.00 | 0.00 | 0.00 | 83 | 1020.6 |
| 20260901020411 | 65 | 34 | 0.0 | 3.0 | 0.00 | 0.00 | 0.00 | 82 | 1020.7 |
| 20260901014911 | 65 | 294 | 0.0 | 0.0 | 0.00 | 0.00 | 0.00 | 83 | 1020.8 |
| 20260901013411 | 65 | 294 | 1.0 | 2.0 | 0.00 | 0.00 | 0.00 | 81 | 1020.6 |
| 20260901011911 | 66 | 294 | 0.0 | 2.0 | 0.00 | 0.00 | 0.00 | 77 | 1020.6 |
| 20260901010411 | 67 | 289 | 1.0 | 4.0 | 0.00 | 0.00 | 0.00 | 75 | 1020.6 |
| 20260901004911 | 67 | 279 | 3.0 | 6.0 | 0.00 | 0.00 | 0.00 | 71 | 1020.5 |
| 20260901003411 | 68 | 287 | 1.0 | 3.0 | 0.00 | 0.00 | 0.00 | 69 | 1020.3 |
| 20260901001911 | 68 | 246 | 3.0 | 4.0 | 0.00 | 0.00 | 0.00 | 71 | 1020.0 |
| 20260901000413 | 68 | 250 | 3.0 | 5.0 | 0.00 | 0.00 | 0.00 | 71 | 1019.9 |
| 20260831234911 | 68 | 266 | 1.0 | 2.0 | 0.00 | 0.00 | 0.00 | 70 | 1020.0 |
| 20260831233411 | 69 | 311 | 4.0 | 8.0 | 0.00 | 0.00 | 0.00 | 70 | 1020.3 |
| 20260831231911 | 69 | 325 | 0.0 | 10.0 | 0.00 | 0.00 | 0.00 | 69 | 1019.9 |
| 20260831230411 | 69 | 38 | 4.0 | 5.0 | 0.00 | 0.00 | 0.00 | 68 | 1019.9 |
| 20260831224912 | 69 | 279 | 3.0 | 6.0 | 0.00 | 0.00 | 0.00 | 72 | 1019.7 |
| 20260831223412 | 70 | 303 | 3.0 | 7.0 | 0.00 | 0.00 | 0.00 | 69 | 1020.0 |
| 20260831221912 | 70 | 295 | 6.0 | 10.0 | 0.00 | 0.00 | 0.00 | 70 | 1020.2 |
| 20260831220412 | 71 | 302 | 4.0 | 8.0 | 0.00 | 0.00 | 0.00 | 69 | 1020.1 |
| 20260831214912 | 71 | 222 | 1.0 | 5.0 | 0.00 | 0.00 | 0.00 | 67 | 1019.7 |
| 20260831213412 | 72 | 5 | 3.0 | 5.0 | 0.00 | 0.00 | 0.00 | 62 | 1019.8 |
| 20260831211912 | 74 | 43 | 4.0 | 10.0 | 0.00 | 0.00 | 0.00 | 62 | 1019.5 |